Aérodrome :
LOGIN :

S'inscrire | Disclaimer

   EN    FR    IT 

 










Légende :    VFR   VFR Marginal   IFR   IFR Intensif   IFR Très Intensif
Visi : 
Plafond : 
>= 8 km
>= 3000ft
5 à 8 km
1000 à 3000 ft
1500m à 5 km
500 à 1000 ft
800 à 1500m
200 à 500 ft
< 800m
< 200 ft
Symboles :   Orages  Brouillard  Fortes neiges  Fortes précipitations  Vent > 20 kt
SIGMETs :   Divers  Orages  Givrage  Turbulence  Onde Orograph.  Cendres Volcan.







- Altitude de l'aérodrome : 1416 ft
- Code IATA : ZRH


LSZH - Zurich

DERNIER METAR :
  • 191950Z VRB01KT CAVOK 09/09 Q1014 NOSIG

METARs EXPIRÉS :
  • 191920Z 00000KT CAVOK 11/09 Q1013 NOSIG
  • 191850Z 31003KT CAVOK 11/09 Q1013 NOSIG
  • 191820Z 29004KT CAVOK 11/09 Q1013 NOSIG
  • 191750Z 02005KT CAVOK 15/10 Q1013 NOSIG
  • 191720Z VRB02KT CAVOK 15/10 Q1013 NOSIG

TAF TAF LSZH
Valide du 19 à 18h jusqu'au 21 à 00h UTC


191725Z 1918/2024 VRB03KT CAVOK TX19/2015Z TN06/2005Z
BECMG 1923/2002 4000 BR NSC
PROB40 2002/2005 3000 MIFG
PROB30 2002/2004 1500 PRFG VV002
BECMG 2009/2012 9999 BKN060
ATIS : +41 43 816 2295 (DEP) +41 43 816 2294 (ARR)
Pas de NOTAMs connus pour ce terrain.



MET'MAP, la Météo Aéronautique d'un coup d'oeil ! - Copyright ORBIFLY Décembre 2007 - Disclaimer

ORBIFLY MET'MAP TEAM :

Programmation & Développement : Alexandra Zaïnal
Conception & Développement : Baudouin d'Aumeries
Co-Programmation & Développement : Marc-Olivier Méhu
Soutien technique & logistique : Manuel Goepfert

Contact : metmap@orbifly.com




SOURCES & CREDITS :

   NOAA